N4LLZ-13 Weather Reports


time (UTC)temp
C
wind
direction
speed
KPH
gust
KPH
rain 1hr
cm
rain 24hr
cm
rain mn
cm
humidity
%
barometer
mb
20260503022045 9 339 0.0 0.0 0.00 3.58 3.68 97 1014.0
20260503021544 9 177 0.0 0.0 0.00 3.58 3.68 97 1013.9
20260503021043 9 183 0.0 1.6 0.00 3.58 3.68 97 1014.1
20260503020543 9 196 0.0 1.6 0.00 3.58 3.68 97 1014.1
20260503020042 9 226 0.0 0.0 0.00 3.58 3.68 97 1014.2
20260503015541 9 233 0.0 1.6 0.00 3.58 3.68 97 1014.2
20260503015040 9 238 0.0 1.6 0.00 3.58 3.68 96 1014.1
20260503014539 9 261 0.0 0.0 0.00 3.58 3.68 96 1014.0
20260503014039 10 0 0.0 0.0 0.00 3.58 3.68 96 1014.0
20260503013538 10 208 0.0 0.0 0.00 3.58 3.68 96 1013.9
20260503013037 10 0 0.0 0.0 0.00 3.58 3.68 96 1013.8
20260503012536 10 0 0.0 0.0 0.00 3.58 3.68 96 1013.7
20260503012035 10 0 0.0 0.0 0.00 3.58 3.68 96 1013.7
20260503011535 10 0 0.0 0.0 0.00 3.58 3.68 96 1013.6
20260503011034 10 0 0.0 0.0 0.00 3.58 3.68 95 1013.5
20260503010533 10 0 0.0 0.0 0.00 3.58 3.68 95 1013.4
20260503010032 10 0 0.0 0.0 0.00 3.58 3.68 95 1013.2
20260503005532 10 191 0.0 1.6 0.00 3.58 3.68 95 1013.2
20260503005031 10 359 0.0 0.0 0.00 3.58 3.68 94 1013.1
20260503004530 11 0 0.0 0.0 0.00 3.58 3.68 94 1013.0
20260503004029 11 328 0.0 0.0 0.00 3.58 3.68 94 1013.0
20260503003528 11 0 0.0 0.0 0.00 3.58 3.68 93 1013.0
20260503003028 11 346 0.0 0.0 0.00 3.58 3.68 93 1013.0
20260503002527 11 0 0.0 0.0 0.00 3.58 3.68 92 1012.9
20260503002026 11 219 0.0 0.0 0.00 3.58 3.68 91 1012.8
20260503001525 11 312 0.0 0.0 0.00 3.58 3.68 91 1012.7
20260503001025 11 0 0.0 0.0 0.00 3.58 3.68 91 1012.6
20260503000524 11 0 0.0 0.0 0.00 3.58 3.68 91 1012.5
20260503000023 11 0 0.0 0.0 0.00 3.58 3.68 90 1012.4
20260502235523 11 188 0.0 0.0 0.00 3.58 3.68 90 1012.3
20260502235021 11 55 0.0 0.0 0.00 3.58 3.68 89 1012.4
20260502234521 11 0 0.0 0.0 0.00 3.58 3.68 89 1012.4
20260502234020 11 224 0.0 0.0 0.00 3.58 3.68 89 1012.4
20260502233519 12 0 0.0 0.0 0.00 3.58 3.68 88 1012.4
20260502233018 12 359 0.0 0.0 0.00 3.58 3.68 88 1012.3
20260502232517 12 196 0.0 1.6 0.00 3.58 3.68 87 1012.3
20260502232017 12 49 0.0 1.6 0.00 3.58 3.68 88 1012.3
20260502231516 12 57 0.0 1.6 0.00 3.58 3.68 87 1012.2
20260502231015 12 82 0.0 1.6 0.00 3.58 3.68 88 1012.1
20260502230514 12 187 0.0 1.6 0.00 3.58 3.68 87 1012.1
20260502230014 12 89 0.0 0.0 0.00 3.58 3.68 86 1012.1
20260502225513 12 84 1.6 1.6 0.00 3.58 3.68 86 1012.1
20260502225012 12 76 0.0 0.0 0.00 3.58 3.68 86 1012.1
20260502224511 12 169 0.0 0.0 0.00 3.58 3.68 86 1012.1
20260502224010 12 5 0.0 0.0 0.00 3.58 3.68 86 1012.1
20260502223510 12 104 0.0 1.6 0.00 3.58 3.68 85 1012.1
20260502223009 12 157 0.0 0.0 0.00 3.58 3.68 84 1012.1
20260502222508 12 105 0.0 1.6 0.00 3.58 3.68 86 1012.1
20260502222007 12 72 0.0 1.6 0.00 3.58 3.68 85 1012.1
20260502221506 12 114 0.0 1.6 0.00 3.58 3.68 85 1012.0
20260502221006 12 35 0.0 1.6 0.00 3.58 3.68 85 1011.9
20260502220505 12 113 0.0 1.6 0.00 3.58 3.68 83 1011.9
20260502220004 12 97 1.6 1.6 0.00 3.58 3.68 84 1011.8
20260502215503 12 92 0.0 1.6 0.00 3.58 3.68 84 1011.9
20260502215002 12 108 0.0 1.6 0.00 3.58 3.68 82 1011.9
20260502214502 12 112 1.6 1.6 0.00 3.58 3.68 83 1011.8
20260502214001 12 100 1.6 3.2 0.00 3.58 3.68 83 1011.8
20260502213500 12 103 1.6 1.6 0.00 3.58 3.68 81 1011.7
20260502212959 13 81 0.0 0.0 0.00 3.58 3.68 82 1011.8
20260502212459 13 105 0.0 1.6 0.00 3.58 3.68 82 1011.9
20260502211958 13 102 1.6 1.6 0.00 3.58 3.68 82 1011.7
20260502211457 13 103 1.6 1.6 0.00 3.58 3.68 81 1011.8
20260502210956 13 45 1.6 1.6 0.00 3.58 3.68 81 1011.8
20260502210455 12 67 0.0 1.6 0.00 3.58 3.68 82 1011.9
20260502205955 12 87 1.6 1.6 0.00 3.58 3.68 81 1012.0
20260502205454 12 111 1.6 3.2 0.00 3.58 3.68 81 1012.0
20260502204953 12 100 1.6 3.2 0.00 3.58 3.68 81 1012.0
20260502204452 12 119 1.6 1.6 0.00 3.58 3.68 80 1012.0
20260502203951 13 90 1.6 3.2 0.00 3.58 3.68 81 1012.0
20260502203451 13 359 0.0 1.6 0.00 3.58 3.68 83 1012.0
20260502202950 13 90 1.6 1.6 0.00 3.58 3.68 81 1012.0
20260502202449 13 57 1.6 1.6 0.00 3.58 3.68 81 1012.0
20260502201948 13 34 1.6 3.2 0.00 3.58 3.68 82 1011.9
20260502201447 12 50 1.6 1.6 0.00 3.58 3.68 83 1011.9
20260502200946 12 75 1.6 1.6 0.00 3.58 3.68 82 1012.0
20260502200445 12 134 1.6 1.6 0.00 3.58 3.68 82 1012.0
20260502195944 12 79 1.6 3.2 0.00 3.58 3.68 83 1012.0
20260502195444 12 102 1.6 3.2 0.00 3.58 3.68 83 1012.0
20260502194943 12 119 1.6 4.8 0.00 3.63 3.68 83 1012.2
20260502194442 12 60 0.0 3.2 0.00 3.63 3.68 85 1012.3
20260502193941 12 19 0.0 1.6 0.00 3.63 3.68 84 1012.4
20260502193441 12 124 1.6 3.2 0.00 3.63 3.68 84 1012.5
20260502192940 12 95 1.6 3.2 0.00 3.63 3.68 85 1012.5
20260502192439 12 134 1.6 3.2 0.00 3.63 3.68 84 1012.5
20260502191938 12 98 3.2 4.8 0.00 3.63 3.68 83 1012.5
20260502191437 12 56 1.6 3.2 0.00 3.63 3.68 84 1012.5
20260502190936 12 78 1.6 3.2 0.00 3.63 3.68 84 1012.6
20260502190436 12 0 1.6 1.6 0.00 3.63 3.68 84 1012.6
20260502185935 12 31 1.6 1.6 0.23 3.63 3.68 86 1012.7
20260502185436 12 67 1.6 3.2 0.28 3.63 3.68 86 1012.7
20260502184933 12 47 1.6 1.6 0.38 3.63 3.68 87 1012.7
20260502184432 12 61 1.6 3.2 0.69 3.63 3.68 87 1012.7
20260502183931 12 110 1.6 3.2 0.74 3.63 3.68 88 1012.7
20260502183431 11 62 1.6 3.2 2.08 3.63 3.68 89 1012.8
20260502182930 11 77 1.6 4.8 2.18 3.63 3.68 88 1012.9
20260502182429 11 57 1.6 3.2 3.78 3.76 3.81 89 1013.0
20260502181929 11 86 1.6 4.8 0.00 3.76 3.81 88 1013.3
20260502181427 11 72 1.6 3.2 0.00 3.76 3.81 89 1013.2
20260502180927 11 39 1.6 1.6 0.00 3.73 3.78 91 1013.1
20260502180426 11 81 1.6 3.2 0.00 3.61 3.66 90 1013.1
20260502170416 11 29 1.6 1.6 18.06 3.68 3.73 93 1013.1
20260502163912 11 81 1.6 1.6 8.56 24.59 25.07 93 1013.8
20260502163411 11 48 1.6 1.6 9.88 24.21 24.66 93 1014.0
20260502162910 11 54 0.0 0.0 9.65 23.85 24.31 94 1014.0
20260502162409 11 71 0.0 1.6 13.39 2.74 2.79 94 1014.0
20260502161908 11 68 0.0 1.6 12.40 2.69 2.74 93 1014.0
20260502161408 11 19 1.6 1.6 11.89 2.62 2.67 93 1014.0
20260502160907 11 81 1.6 1.6 4.57 18.82 19.28 92 1014.0
20260502160406 11 58 1.6 1.6 5.08 18.06 18.54 92 1014.1
20260502151859 11 92 1.6 4.8 2.49 14.50 14.96 92 1013.9
20260502151358 11 97 1.6 1.6 2.69 14.25 14.71 92 1013.9
20260502150858 11 65 1.6 1.6 1.85 12.98 13.46 92 1014.0
20260502150356 11 22 1.6 1.6 2.06 12.22 12.67 92 1014.2
20260502130337 11 356 1.6 1.6 3.68 7.37 7.57 92 1013.0
20260502123332 11 345 1.6 1.6 1.50 4.47 4.47 91 1012.3
20260502122831 11 292 1.6 1.6 1.42 4.24 4.24 91 1012.4
20260502122330 11 10 0.0 0.0 2.36 4.93 4.93 91 1012.4
20260502121830 11 1 1.6 1.6 3.84 4.78 4.78 91 1012.4
20260502121329 11 303 0.0 1.6 3.71 4.57 4.57 90 1012.5
20260502120828 11 330 1.6 1.6 3.12 3.89 3.89 89 1012.5
20260502120327 11 13 0.0 1.6 4.62 4.72 4.72 89 1012.6
20260502115826 11 324 0.0 1.6 4.47 4.47 4.47 89 1012.6
20260502115325 11 352 0.0 1.6 3.89 3.89 3.89 88 1012.7
20260502114825 11 37 0.0 1.6 3.68 3.68 3.68 88 1012.7
20260502114324 11 348 0.0 1.6 3.51 3.51 3.51 87 1012.7
20260502113823 11 129 0.0 0.0 3.00 3.00 3.00 86 1012.7
20260502113322 11 0 0.0 1.6 2.82 2.82 2.82 85 1012.8
20260502112821 11 347 0.0 0.0 2.57 2.57 2.57 85 1012.8
20260502112320 12 343 1.6 1.6 0.94 0.94 0.94 85 1012.9
20260502111820 12 337 1.6 1.6 0.86 0.86 0.86 84 1012.9
20260502111319 12 337 1.6 1.6 0.74 0.74 0.74 84 1012.9
20260502110818 12 275 0.0 0.0 0.13 0.13 0.13 85 1012.9
20260502110317 12 315 1.6 1.6 0.00 0.00 0.00 85 1012.8
20260502105816 12 291 1.6 1.6 0.00 0.00 0.00 85 1012.8
20260502105316 12 290 1.6 1.6 0.00 0.00 0.00 85 1012.8
20260502104815 12 305 1.6 1.6 0.00 0.00 0.00 85 1012.8
20260502104314 12 286 0.0 1.6 0.00 0.00 0.00 86 1012.8
20260502103813 12 263 0.0 1.6 0.00 0.00 0.00 86 1012.9
20260502103312 12 302 1.6 1.6 0.00 0.00 0.00 86 1012.9
20260502102811 12 324 1.6 1.6 0.00 0.00 0.00 86 1012.9
20260502102311 12 346 1.6 1.6 0.00 0.00 0.00 87 1012.8
20260502101810 12 0 0.0 0.0 0.00 0.00 0.00 88 1012.9
20260502101309 12 316 0.0 1.6 0.00 0.00 0.00 88 1012.8
20260502100808 12 298 1.6 1.6 0.00 0.00 0.00 87 1012.8
20260502100307 12 326 1.6 1.6 0.00 0.00 0.00 87 1012.7
20260502091259 11 272 1.6 1.6 0.00 0.00 0.00 90 1012.7
20260502090758 11 238 0.0 1.6 0.00 0.00 0.00 90 1012.6
20260502090257 11 327 1.6 1.6 0.00 0.00 0.00 90 1012.6
20260502071239 11 335 1.6 1.6 0.00 0.00 0.00 92 1011.9
20260502070738 11 0 0.0 0.0 0.00 0.00 0.00 92 1011.9
20260502070238 11 0 0.0 0.0 0.00 0.00 0.00 92 1012.0
20260502065737 11 0 0.0 0.0 0.00 0.00 0.00 92 1012.0
20260502065236 11 0 0.0 0.0 0.00 0.00 0.00 92 1012.1
20260502064735 11 0 0.0 0.0 0.00 0.00 0.00 92 1012.1
20260502064235 11 255 0.0 0.0 0.00 0.00 0.00 92 1012.2
20260502063734 11 238 0.0 0.0 0.00 0.00 0.00 92 1012.1
20260502063233 11 0 0.0 0.0 0.00 0.00 0.00 92 1012.3
20260502062732 11 0 0.0 0.0 0.00 0.00 0.00 91 1012.3
20260502062232 11 0 0.0 0.0 0.00 0.00 0.00 91 1012.3
20260502061731 11 315 0.0 0.0 0.00 0.00 0.00 91 1012.3
20260502061231 11 0 0.0 0.0 0.00 0.00 0.00 91 1012.4
20260502060730 11 0 0.0 0.0 0.00 0.00 0.00 91 1012.4
20260502060229 11 100 0.0 0.0 0.00 0.00 0.00 90 1012.3
20260502055728 11 0 0.0 0.0 0.00 0.00 0.00 90 1012.3
20260502055227 11 0 0.0 0.0 0.00 0.00 0.00 90 1012.4
20260502054727 11 0 0.0 0.0 0.00 0.00 0.00 90 1012.5
20260502054226 11 0 0.0 0.0 0.00 0.00 0.00 90 1012.6
20260502053725 11 94 0.0 1.6 0.00 0.00 0.00 90 1012.5
20260502053224 11 0 0.0 0.0 0.00 0.00 0.00 91 1012.6
20260502052723 11 348 0.0 1.6 0.00 0.00 0.00 90 1012.7
20260502052223 11 252 0.0 0.0 0.00 0.00 0.00 90 1012.7
20260502051722 11 212 0.0 1.6 0.00 0.00 0.00 90 1012.8
20260502051221 11 0 0.0 0.0 0.00 0.00 0.00 89 1012.9
20260502050720 11 0 0.0 0.0 0.00 0.00 0.00 89 1012.9
20260502050220 11 0 0.0 0.0 0.00 0.00 0.00 89 1013.0
20260502045719 11 0 0.0 0.0 0.00 0.00 0.00 90 1013.0
20260502045218 11 0 0.0 0.0 0.00 0.00 0.00 89 1013.0
20260502044717 11 0 0.0 0.0 0.00 0.00 0.00 89 1013.1
20260502044216 11 0 0.0 0.0 0.00 0.00 0.00 89 1013.1
20260502043716 11 0 0.0 0.0 0.00 0.00 0.00 89 1013.1
20260502043215 11 0 0.0 0.0 0.00 0.00 0.00 89 1013.1
20260502042714 11 0 0.0 0.0 0.00 0.00 0.00 89 1013.1
20260502042213 11 0 0.0 0.0 0.00 0.00 0.00 88 1013.1
20260502041712 11 0 0.0 0.0 0.00 0.00 0.00 88 1013.0
20260502041212 11 0 0.0 0.0 0.00 0.00 0.00 88 1013.0
20260502040711 11 0 0.0 0.0 0.00 0.00 0.00 88 1013.0
20260502040210 11 0 0.0 0.0 0.00 0.99 1.04 87 1013.1
20260502035709 11 0 0.0 0.0 0.00 0.99 1.04 88 1013.0
20260502035208 11 0 0.0 0.0 0.00 0.99 1.04 88 1013.1
20260502034708 11 0 0.0 0.0 0.00 0.99 1.04 88 1013.1
20260502034207 11 0 0.0 0.0 0.00 0.99 1.04 88 1013.1
20260502033706 11 197 0.0 0.0 0.00 0.99 1.04 88 1013.1
20260502033205 11 0 0.0 0.0 0.00 0.99 1.04 88 1013.3
20260502032704 11 0 0.0 0.0 0.00 0.99 1.04 88 1013.2
20260502032204 11 86 0.0 0.0 0.00 0.99 1.04 88 1013.4
20260502031704 11 0 0.0 0.0 0.00 0.99 1.04 87 1013.4
20260502031203 11 220 0.0 1.6 0.00 0.99 1.04 87 1013.5
20260502030702 11 0 0.0 0.0 0.00 0.99 1.04 88 1013.5
20260502030201 11 0 0.0 0.0 0.00 0.99 1.04 87 1013.6
20260502025700 11 341 0.0 1.6 0.00 0.99 1.04 87 1013.6
20260502025159 11 0 0.0 0.0 0.00 0.99 1.04 86 1013.6
20260502024659 11 0 0.0 0.0 0.00 0.99 1.04 87 1013.7
20260502024158 11 16 0.0 1.6 0.00 0.99 1.04 86 1013.6
20260502023657 11 117 0.0 0.0 0.00 0.99 1.04 87 1013.6
20260502023156 11 0 0.0 0.0 0.00 0.99 1.04 86 1013.8
20260502022656 11 2 0.0 1.6 0.00 0.99 1.04 86 1013.8